Location: Franzen
(48.6167°N, 15.3833°E)
Time: 14:25:17
(UTC+00:00)

Cosmos 2221 - Pass Details

Date: 03 August 2021
Orbit: 593 x 614 km, 82.5° (Epoch: 21 September)

Event Time Altitude Azimuth Distance (km) Brightness Sun altitude
Rises 19:08:24 0° 342° (NNW) 2,866 6.9 -5.8°
Reaches altitude 10° 19:10:46 10° 332° (NNW) 1,961 6.3 -6.2°
Maximum altitude 19:14:37 32° 270° (W) 1,055 4.4 -6.7°
Drops below altitude 10° 19:18:28 10° 207° (SSW) 1,958 5.0 -7.2°
Sets 19:20:51 0° 197° (SSW) 2,861 5.8 -7.5°
